User: anonymous   Login
Location: Unspecified
(0.0000°N, 0.0000°E)
Time: 10:17:43
(UTC+00:00)
Language:

GONETS M04 - Orbit

View from above orbital plane
View from above orbital plane
View from above satellite
View from above satellite

Ground track
Ground track

The orbit data is extracted from the following two-line orbital elements,

1 38736U 12041D   18232.48463087 +.00000013 +00000-0 +20820-4 0  9991
2 38736 082.4762 056.1156 0024445 172.6493 187.4951 12.43803446275108
Epoch (UTC): 20 August 2018 11:37:52
Eccentricity: 0.0024445
inclination: 82.4762°
perigee height: 1471 km
apogee height: 1510 km
right ascension of ascending node: 56.1156°
argument of perigee: 172.6493°
revolutions per day: 12.43803446
mean anomaly at epoch: 187.4951°
orbit number at epoch: 27510

The dashed part of the orbit path shows where the satellite is in the earth's shadow,  

DLR